Theta_e
301 301 301 302 303 303 304 304 305 305 306 306 306 306 306 306 306 307 308 308 309 309 309 310 310 310 310 310 311 311 311 311 311 311 312 312 312 312 311 311 311 310 310 310 310 310 310 310 310 310 310 310 310 310 310 310 310 309 309 309 309 309 309 309 309 309 309 309 310 310 310 310 310 309 309 309 308 308 308 308 308 308 308 309 309 309
301 301 302 302 302 302 303 303 303 304 304 305 305 305 305 305 305 305 306 306 307 307 308 308 309 309 309 309 310 310 310 310 311 311 311 311 311 311 311 311 311 311 310 310 310 310 310 310 310 310 310 310 310 310 310 310 310 310 309 309 309 309 309 309 309 309 309 309 309 309 309 309 308 308 308 308 308 308 308 308 308 308 308 308 308 308
302 302 302 302 302 302 303 303 303 303 304 304 304 304 304 304 304 304 305 305 305 306 306 307 307 308 308 308 309 309 309 309 310 310 310 311 311 311 311 311 311 311 310 310 310 310 310 310 310 311 311 311 311 310 310 310 310 309 309 309 309 309 309 309 309 309 309 309 309 308 308 308 308 308 308 308 308 308 308 307 307 307 307 307 307 307
302 302 302 302 303 303 303 303 303 303 304 304 303 303 303 304 304 304 304 304 304 304 305 305 306 306 307 307 307 308 308 308 309 309 310 310 310 311 311 311 311 311 310 310 310 310 310 310 310 311 310 311 310 310 310 310 310 309 309 309 309 308 308 308 308 308 308 308 308 308 308 308 308 308 308 307 307 307 307 307 307 307 307 307 307 307
302 303 303 303 303 303 303 303 303 303 304 303 303 303 303 303 303 303 303 303 303 304 304 304 305 305 306 306 306 307 307 307 308 308 309 309 310 311 311 311 311 311 310 310 310 310 310 310 310 310 310 310 310 310 310 310 309 309 309 308 308 308 308 308 308 308 308 308 308 308 307 307 307 307 307 307 307 307 307 307 307 306 306 306 306 306
303 303 303 303 303 303 303 303 303 303 303 303 303 303 303 303 303 303 303 303 303 303 303 303 304 304 304 305 305 305 306 306 307 307 308 309 310 310 311 311 311 310 310 310 310 310 310 310 310 310 310 310 310 310 309 309 309 308 308 308 307 307 307 307 307 307 307 307 307 307 307 307 307 307 307 307 306 306 306 306 306 306 306 306 306 306
303 303 303 303 303 303 303 303 303 303 303 303 303 303 303 302 302 302 302 303 302 302 303 303 303 303 303 304 304 305 305 306 306 307 307 308 309 310 310 310 310 310 310 310 310 309 309 309 310 309 309 309 309 309 309 308 308 307 307 307 307 307 307 306 306 306 306 306 306 306 306 306 306 306 306 306 306 306 306 306 306 305 305 305 305 305
303 303 303 303 303 303 303 303 303 303 303 303 302 302 302 302 302 302 302 302 302 302 302 302 302 302 303 303 303 304 305 305 306 307 307 308 309 309 310 310 310 310 309 309 309 309 309 309 309 309 309 309 308 308 308 307 307 307 306 306 306 306 306 306 306 306 306 306 306 306 306 306 306 306 306 305 305 305 305 305 305 305 304 304 304 304
303 303 303 303 303 303 303 303 302 302 302 302 302 302 302 302 302 302 302 302 302 302 302 302 302 302 302 303 303 304 304 305 305 306 307 307 308 308 309 309 309 309 308 308 308 308 308 308 308 308 308 308 307 307 307 307 306 306 306 306 306 306 306 306 305 305 305 305 305 305 305 305 305 305 305 305 304 304 304 304 304 304 304 303 303 303
303 303 303 303 303 302 302 302 302 302 302 301 301 301 301 301 302 302 302 302 302 302 302 302 302 302 302 302 303 303 304 304 305 305 306 307 307 307 308 308 308 307 307 307 307 307 307 307 307 307 307 307 306 306 306 306 306 306 306 305 305 305 305 305 305 305 305 305 305 305 304 304 304 304 304 304 304 303 303 303 303 303 303 303 303 303
302 302 302 302 302 302 302 302 301 301 301 301 301 301 301 301 301 301 301 301 301 301 301 301 302 302 302 302 302 303 303 304 305 305 306 306 306 306 307 307 307 307 307 307 307 307 307 307 306 306 306 306 306 305 305 305 305 305 305 305 305 305 305 305 304 304 304 304 304 304 304 303 303 303 303 303 303 303 302 302 302 302 302 302 302 301
301 301 301 301 301 301 301 301 301 301 300 300 300 301 301 301 301 301 301 301 301 301 301 301 301 302 302 302 302 303 303 304 304 305 305 306 306 306 306 306 306 306 306 306 306 306 306 306 306 305 305 305 305 305 305 305 305 305 305 305 305 304 304 304 304 304 303 303 303 303 303 303 303 302 302 302 302 301 301 301 301 300 300 300 300 300
301 301 301 301 301 301 300 300 300 300 300 300 300 300 301 301 301 301 301 300 301 301 301 301 301 302 302 302 302 303 303 304 304 305 305 305 306 306 306 306 306 306 306 306 306 306 306 305 305 305 304 304 304 304 305 305 305 304 304 304 304 304 303 303 303 303 303 302 302 302 302 302 302 301 301 301 301 300 300 300 299 299 299 298 298 298
300 300 300 300 300 300 300 300 300 300 300 300 300 300 300 300 300 300 300 300 300 301 301 301 301 301 302 302 303 303 304 304 304 304 304 305 305 305 305 305 305 305 305 305 305 305 305 304 304 304 304 304 304 304 304 304 304 304 304 303 303 303 303 303 302 302 302 302 302 301 301 301 301 300 300 300 299 299 299 298 298 298 298 298 297 297
300 300 300 300 300 300 300 300 300 300 300 300 300 300 300 300 300 300 300 300 300 300 300 301 301 301 302 302 302 303 303 303 303 304 304 304 304 304 304 304 304 304 304 305 305 304 304 304 303 303 303 303 303 303 303 303 303 303 303 302 302 302 302 302 302 302 301 301 301 300 300 300 300 299 299 299 298 298 298 298 297 297 297 297 297 297
300 300 300 300 300 300 300 300 300 300 300 300 300 300 300 300 300 300 300 300 300 300 300 301 301 301 301 301 301 302 302 302 303 303 303 303 304 303 303 303 303 303 304 304 304 304 303 303 303 303 303 303 303 303 303 303 302 302 302 302 302 302 302 301 301 301 301 300 300 300 299 299 299 298 298 298 298 298 297 297 297 297 297 297 296 296
299 299 299 299 299 300 300 300 300 300 300 300 300 300 300 300 300 300 300 300 300 300 300 301 301 301 300 300 301 301 301 301 302 302 302 303 303 303 303 303 303 303 303 303 303 303 303 303 303 303 303 303 303 302 302 302 302 302 302 302 302 301 301 301 301 300 300 300 299 299 298 298 298 298 297 297 297 297 297 297 296 296 296 296 295 295
299 299 299 299 299 300 300 300 300 300 300 300 300 299 299 299 300 300 300 300 300 300 300 300 300 300 300 300 300 300 301 301 301 302 302 302 303 303 303 303 302 302 302 303 303 303 302 302 302 302 302 302 302 302 302 302 302 302 302 301 301 301 301 300 300 300 299 299 298 298 298 297 297 297 297 297 297 296 296 296 295 295 295 295 295 294
299 299 299 299 299 299 300 300 300 300 300 300 299 299 299 299 299 299 300 300 300 300 300 300 300 300 300 301 301 301 301 301 301 302 302 302 303 303 302 302 302 302 302 302 302 302 302 302 301 301 301 301 301 301 301 301 301 301 301 301 300 300 300 299 299 299 298 298 297 297 297 296 296 296 296 296 295 295 295 294 294 294 294 294 294 294
299 299 299 299 299 299 299 300 300 300 300 300 299 299 299 299 299 299 299 300 300 300 300 300 300 300 301 301 301 301 301 301 301 301 301 302 302 302 302 302 302 302 302 302 302 302 301 301 301 301 301 301 300 301 301 300 300 300 300 300 299 299 299 299 298 298 297 297 297 296 296 295 295 295 295 294 294 294 294 293 294 294 294 294 294 294
298 299 299 300 300 299 299 300 300 301 300 300 299 299 299 299 299 299 299 299 299 300 300 300 300 301 301 301 300 300 301 301 301 301 301 301 301 302 302 302 301 301 301 301 301 301 301 300 300 300 300 300 300 300 300 299 299 299 298 298 298 298 298 297 297 297 297 296 296 295 295 294 294 294 293 293 293 293 293 293 293 293 293 293 293 293
298 299 299 299 299 299 300 300 300 300 300 299 299 299 299 299 299 299 299 299 299 300 300 300 300 301 300 300 300 300 300 301 301 301 300 301 301 301 301 301 301 301 301 301 301 301 300 300 300 300 300 300 299 299 299 298 298 297 297 297 297 296 297 296 296 296 296 295 295 294 294 293 293 293 293 293 293 293 293 293 293 293 292 292 292 292
299 299 300 300 300 300 300 300 300 300 300 299 299 299 299 299 299 299 299 299 300 300 300 300 300 300 300 300 300 300 300 300 300 300 300 300 300 301 301 301 300 300 300 301 301 300 300 300 300 300 300 299 299 299 298 297 297 297 296 296 296 296 296 296 296 295 295 295 294 293 293 293 292 292 292 292 293 292 292 292 292 292 292 292 292 292
299 299 299 300 300 300 300 300 300 300 300 299 299 299 299 299 299 299 299 299 300 300 300 300 300 300 300 300 300 300 300 300 300 300 300 300 300 301 300 300 300 300 300 300 300 300 299 299 299 299 299 299 299 298 297 297 296 296 296 295 295 295 295 295 295 295 294 293 293 292 292 292 292 292 292 292 292 292 292 292 291 291 291 292 292 292
299 299 299 300 300 300 300 300 300 300 300 299 299 299 299 299 299 299 299 299 299 300 300 299 299 299 299 299 299 299 299 300 300 300 300 300 300 300 300 300 300 300 300 300 300 299 299 299 299 299 299 299 298 297 296 296 295 295 295 295 294 294 294 294 294 293 293 292 292 292 292 292 292 292 292 292 292 292 291 291 291 291 291 291 292 292
299 299 299 300 300 300 300 300 300 300 299 299 299 299 299 299 299 299 299 299 299 299 299 299 299 299 299 299 299 299 299 300 300 300 300 299 300 300 300 300 300 300 299 299 299 299 299 299 299 299 299 298 297 296 295 295 295 294 294 294 294 294 293 293 293 292 292 292 291 291 291 292 292 292 292 292 292 291 291 291 291 291 291 292 292 292
299 299 299 299 300 300 300 300 300 299 299 299 299 299 299 299 299 299 299 299 299 299 299 299 298 298 298 298 299 299 299 299 300 300 300 300 299 299 300 300 300 299 299 298 298 299 299 299 299 298 298 296 295 294 294 294 294 294 293 293 293 293 292 292 292 291 291 291 291 291 291 291 291 292 291 291 291 291 291 291 291 291 292 292 292 292
298 298 298 299 299 299 299 299 299 299 299 299 299 299 299 299 299 299 299 299 299 299 299 298 298 298 298 298 299 299 299 299 299 300 300 299 299 299 299 300 299 299 298 298 298 298 298 298 298 297 296 295 294 294 294 294 294 293 293 292 292 292 291 291 291 291 291 291 291 291 291 291 291 291 291 291 291 291 291 291 291 292 292 292 292 293
298 298 298 298 298 298 299 299 299 298 298 299 299 298 298 299 299 299 298 299 299 299 299 298 298 298 298 298 298 298 299 299 299 299 299 299 298 299 299 299 299 298 297 297 298 298 298 298 297 296 295 294 294 294 294 294 293 292 292 291 291 291 291 291 291 291 291 291 291 291 291 291 291 291 291 291 291 291 291 291 291 291 292 292 292 293
298 298 298 298 299 299 299 299 298 298 298 298 298 298 298 299 299 299 299 298 299 299 299 298 298 298 298 298 298 298 298 299 299 299 299 298 298 298 299 299 298 297 297 296 296 296 297 297 296 295 295 294 294 294 294 293 293 292 291 291 291 290 290 290 290 290 290 290 290 291 291 290 291 290 290 291 291 291 291 291 291 291 292 292 292 293
299 299 299 299 299 299 299 299 299 299 299 299 299 298 298 299 299 299 299 299 299 299 299 298 298 298 298 298 297 297 297 299 299 299 299 298 298 298 298 298 297 297 296 296 295 294 294 294 295 295 295 294 294 294 293 293 292 291 291 290 290 290 289 289 290 290 290 290 290 290 290 290 290 290 290 290 290 290 291 291 291 291 292 292 292 293
299 299 299 299 299 299 299 299 299 299 299 299 299 299 299 299 299 299 299 299 299 299 299 298 298 298 298 298 298 297 298 298 299 299 298 298 297 297 297 297 297 296 296 295 294 293 292 292 293 294 294 293 293 293 292 292 291 290 290 289 289 289 289 289 289 289 289 289 290 290 290 290 290 290 290 290 291 291 291 291 291 292 292 293 293 293
298 298 298 299 299 299 299 299 299 299 299 299 299 299 299 299 299 299 299 299 299 299 299 298 298 298 298 298 299 299 298 298 298 298 298 297 297 296 297 297 296 295 295 294 294 293 292 292 292 292 292 292 292 291 291 290 290 289 289 289 289 289 289 289 289 289 289 289 289 290 290 290 290 291 291 291 291 292 292 292 292 292 292 293 293 293
297 297 298 298 298 298 299 299 299 299 299 299 299 299 300 300 299 299 299 300 300 299 299 298 298 298 298 298 298 299 298 298 298 297 297 297 296 296 296 296 296 295 294 293 293 293 292 292 292 292 292 291 291 290 290 289 289 288 288 288 289 289 289 289 289 290 290 290 290 291 291 292 292 292 292 292 292 292 292 292 292 292 292 292 292 292
296 296 296 297 297 297 298 298 298 298 299 299 299 299 300 300 300 300 300 300 300 299 299 298 298 298 298 298 298 298 298 297 297 297 297 296 296 296 296 295 295 294 294 293 292 292 292 293 292 292 292 291 291 291 290 289 289 288 288 288 289 289 289 290 290 291 291 292 292 293 293 293 293 293 292 292 291 291 291 291 290 290 290 290 290 290
296 296 296 296 296 297 297 297 298 298 298 298 299 299 299 300 300 300 300 300 300 299 299 298 298 298 297 297 297 297 297 297 296 296 296 295 295 295 295 295 294 294 293 293 293 292 292 292 292 292 291 291 291 290 290 289 289 288 288 289 289 289 290 291 291 292 293 294 294 294 294 293 293 292 291 291 290 290 290 290 289 289 289 289 289 288
297 297 296 296 296 297 297 297 297 297 298 298 298 299 299 299 300 300 300 299 299 299 298 298 297 297 297 297 297 296 296 296 295 295 295 295 295 294 294 294 294 293 293 293 293 292 292 292 292 291 291 290 290 290 290 289 289 288 288 289 289 290 291 292 293 293 294 294 294 293 293 292 291 290 290 290 289 289 289 289 289 289 288 288 288 288
297 297 297 297 297 297 297 297 297 297 298 298 298 298 298 299 299 299 299 299 298 298 297 297 297 296 296 296 296 296 295 295 295 294 294 294 294 294 294 293 293 293 293 292 292 292 292 291 291 291 291 291 290 290 289 289 289 289 289 290 290 291 292 293 293 293 293 292 292 291 290 290 289 289 289 289 289 289 289 289 288 288 288 288 288 288
297 297 297 297 297 297 297 297 297 297 298 298 298 298 298 298 298 298 298 298 297 297 297 296 296 296 295 295 295 295 294 294 294 293 293 293 293 293 293 293 293 293 292 292 292 292 291 291 291 291 290 290 290 289 289 289 289 290 290 292 292 293 293 293 293 292 292 291 290 289 289 289 289 289 289 288 288 288 288 288 288 288 288 288 288 288
297 297 297 297 297 297 297 297 297 297 297 297 297 297 297 297 297 297 297 297 296 296 296 295 295 295 295 295 294 294 294 293 293 293 292 292 293 293 293 292 292 292 292 292 292 292 291 291 291 290 290 289 289 289 289 289 290 291 292 293 294 294 294 293 292 291 290 289 289 288 288 288 288 288 288 288 288 288 288 288 288 288 288 288 288 288
297 297 296 297 297 297 297 297 297 297 297 297 297 297 297 296 296 296 296 296 295 295 295 295 295 294 294 294 294 294 293 293 292 292 292 292 292 292 292 292 292 292 292 291 291 291 291 291 290 290 289 289 289 289 289 290 291 291 292 293 293 293 293 292 291 290 289 288 288 288 288 288 288 288 288 288 288 288 288 288 288 288 288 288 287 287
296 296 296 296 296 296 297 297 297 297 297 297 297 297 296 296 296 296 295 295 295 295 295 295 294 294 294 294 294 293 293 292 292 292 292 291 291 291 291 291 291 291 291 291 291 291 291 290 290 289 289 289 289 289 290 291 291 291 291 292 292 292 291 290 289 289 288 288 288 288 288 288 288 288 288 288 288 288 288 288 288 288 288 287 287 287
296 296 296 296 296 296 297 297 297 297 296 297 296 296 296 296 296 295 295 295 295 295 295 294 294 294 294 293 293 293 293 292 292 292 291 291 291 291 291 291 291 291 290 290 290 290 290 290 289 289 289 289 289 289 289 291 291 291 291 291 290 289 289 289 289 288 288 288 287 287 287 287 287 287 287 287 288 288 288 288 287 287 287 287 287 287
296 296 296 296 296 297 297 297 297 297 297 296 296 296 296 296 296 295 295 295 294 294 294 294 294 293 293 293 293 292 292 292 291 291 291 291 291 291 291 291 290 290 290 290 290 289 289 289 289 289 288 288 288 289 289 290 290 290 290 289 288 288 288 288 288 288 287 287 287 287 287 287 287 287 287 287 287 287 287 287 287 287 287 286 286 286
296 297 297 297 297 297 297 297 297 297 296 296 296 296 296 296 295 295 295 294 294 294 294 294 293 293 292 292 292 292 292 291 291 291 291 291 291 290 290 290 290 289 289 289 289 289 289 288 288 288 288 288 288 288 288 289 289 289 288 288 287 287 287 287 287 287 287 287 287 287 287 287 287 287 287 287 287 287 287 287 286 286 286 286 286 286
297 297 297 297 297 297 297 296 296 296 296 296 296 296 296 296 295 295 295 294 294 294 293 293 293 292 292 292 292 291 291 291 291 290 290 290 290 290 290 289 289 289 289 289 289 288 288 288 288 288 288 287 287 288 288 287 287 287 287 287 287 287 287 287 286 286 286 286 286 286 286 286 286 286 286 286 286 286 286 286 286 286 286 286 286 286
296 297 297 297 297 296 296 296 296 296 296 296 296 296 296 295 295 295 294 294 294 293 293 293 292 292 292 291 291 291 291 290 290 290 290 290 289 289 289 289 288 288 288 288 288 288 288 288 287 287 287 287 287 287 287 287 287 287 287 287 286 286 286 286 286 286 286 286 286 286 286 286 286 286 286 286 286 286 286 286 286 286 286 286 286 286
296 296 296 296 296 296 296 296 296 296 296 296 295 295 295 295 295 294 294 294 293 293 293 292 292 291 291 291 291 290 290 290 290 289 289 289 288 288 288 288 288 288 288 288 288 287 287 287 287 287 287 286 286 286 287 287 287 286 286 286 286 286 286 286 286 286 286 286 286 286 285 285 285 285 285 285 285 286 286 286 286 286 286 286 286 286
296 296 296 296 296 296 296 296 296 296 295 295 295 295 295 295 295 294 294 293 293 293 292 292 291 291 291 290 290 290 290 289 289 288 288 288 288 287 287 287 287 286 286 286 286 286 286 287 287 287 286 286 286 286 286 286 286 286 286 286 286 286 286 286 286 286 286 286 286 285 285 285 285 284 285 284 285 285 286 286 286 286 286 286 286 286
296 296 296 296 296 296 296 296 295 295 295 295 295 295 295 295 294 294 293 293 293 292 292 291 291 291 290 290 290 289 289 289 288 288 288 287 287 287 286 286 285 285 285 285 285 285 286 286 286 287 286 286 286 286 286 286 286 286 286 286 286 286 286 286 286 286 286 285 285 285 285 285 284 284 284 284 284 285 285 286 286 286 286 286 286 287
296 296 296 296 296 296 295 295 295 295 295 295 295 295 294 294 294 293 293 293 292 292 291 291 291 290 290 290 289 289 289 288 288 288 287 287 287 287 286 286 286 286 286 286 285 285 285 285 286 286 286 286 285 285 286 286 286 285 286 286 285 285 285 285 286 285 285 285 285 285 285 285 284 284 284 283 284 284 285 286 287 287 287 287 287 287
Wind_Speed
30 30 30 31 32 33 34 35 35 35 37 37 38 39 40 40 40 40 40 40 40 40 40 39 39 39 39 39 38 37 36 35 35 34 34 33 33 32 32 32 31 30 30 29 29 29 28 28 28 28 27 27 27 27 27 27 27 27 28 28 28 29 29 29 29 29 29 29 28 28 28 28 28 27 27 27 26 26 26 27 27 27 27 28 28 28
31 30 30 30 30 31 32 33 33 34 35 36 37 38 39 40 41 41 41 41 42 42 41 41 41 40 40 40 39 38 38 37 37 36 35 34 33 33 32 32 32 32 31 31 30 30 30 30 30 30 29 29 29 29 29 29 29 29 29 29 29 29 29 29 29 29 29 29 28 28 28 27 27 27 27 27 27 27 27 27 27 27 27 27 27 28
31 30 30 30 29 29 30 30 31 31 33 34 35 36 38 39 39 40 40 40 41 41 41 41 41 40 40 40 40 39 39 38 38 37 36 35 34 33 33 32 32 32 32 31 31 31 31 31 31 30 31 31 31 31 31 31 31 31 31 30 30 30 30 30 30 30 29 29 29 29 28 28 28 27 27 27 27 27 27 27 27 27 27 27 27 28
30 30 30 29 29 29 29 29 29 30 31 32 34 35 35 36 37 38 38 39 40 40 40 40 40 40 40 40 40 39 39 39 38 37 36 35 34 33 32 32 32 32 32 32 31 31 31 31 31 31 31 31 31 32 32 32 32 32 32 32 31 31 30 30 30 30 29 30 29 29 29 29 28 28 28 28 28 28 28 28 28 28 28 28 28 28
30 29 29 29 29 29 29 29 29 30 31 32 33 33 34 35 36 36 37 38 39 39 40 40 40 40 40 40 40 39 39 39 38 37 36 35 33 33 32 32 32 32 31 31 31 31 31 30 30 30 31 31 32 32 32 33 33 33 33 32 32 31 31 30 30 29 29 29 29 29 29 29 29 29 28 28 28 28 28 28 28 28 28 28 28 28
30 29 29 29 29 29 30 30 30 31 32 32 33 34 34 35 35 36 37 37 38 38 39 39 39 40 40 40 40 39 39 38 37 36 35 34 33 32 31 31 31 31 31 31 30 30 30 30 30 31 31 32 32 32 33 33 33 33 33 32 32 31 31 30 29 29 29 29 29 29 29 29 29 28 28 28 28 28 28 28 28 28 28 28 28 28
30 29 29 29 30 31 31 32 33 33 33 34 34 35 35 35 35 36 36 36 36 37 37 38 38 39 39 39 39 38 38 37 36 35 34 33 32 31 30 30 30 30 30 30 30 30 30 30 31 31 32 32 32 33 33 33 33 33 33 32 32 31 30 29 29 28 28 28 28 28 28 28 28 28 28 27 27 27 27 27 28 28 28 28 28 28
30 30 29 29 31 32 33 34 35 34 34 34 35 35 35 35 35 35 35 35 35 36 36 37 37 37 37 37 37 36 36 36 35 34 33 31 30 30 29 29 29 29 29 29 29 30 30 30 31 31 32 32 33 33 33 33 33 33 32 32 31 30 29 29 28 28 27 27 27 27 27 27 27 27 27 27 27 27 27 27 27 27 27 27 27 27
31 31 30 30 31 32 34 35 35 35 34 34 34 35 35 35 36 36 36 36 36 36 36 37 37 36 36 35 35 34 34 34 34 33 31 30 29 29 28 28 28 29 29 29 30 30 30 31 31 32 32 32 33 33 33 33 33 32 31 30 30 29 28 27 27 27 26 26 26 26 26 26 26 26 26 26 26 26 26 26 26 26 26 26 26 26
32 32 32 32 33 33 34 35 35 34 34 34 35 35 35 36 36 37 38 38 38 38 37 37 36 36 35 34 33 33 33 33 33 32 31 30 29 28 28 28 28 29 29 29 30 30 30 31 31 31 32 32 32 33 33 32 32 31 30 29 28 28 27 26 26 26 26 26 26 25 25 25 25 26 26 26 26 26 26 26 25 25 25 25 25 25
32 33 33 33 34 35 35 35 34 34 34 34 35 36 36 36 36 37 38 39 38 37 36 36 35 34 34 33 33 32 32 33 32 32 31 30 29 29 29 29 29 30 30 30 30 30 31 31 31 31 32 32 32 32 31 31 30 29 29 28 27 26 26 25 25 25 25 25 25 25 25 25 25 25 25 25 25 25 25 24 24 24 24 24 24 24
33 34 34 35 35 35 36 36 35 34 34 34 35 36 37 36 36 36 36 37 36 34 33 33 32 32 31 31 31 31 32 32 33 32 31 31 30 30 30 30 30 31 31 31 31 31 31 31 31 31 31 31 31 30 30 29 29 28 27 27 26 25 25 25 25 25 24 24 24 24 24 24 24 24 24 24 24 24 24 24 23 23 23 23 23 23
34 34 35 36 37 36 36 35 35 35 35 35 36 37 37 36 34 34 34 34 34 32 30 30 30 30 30 30 30 30 31 32 32 32 32 31 31 30 30 31 31 32 31 31 31 31 30 30 30 30 30 30 29 29 28 28 27 27 26 25 25 25 24 24 24 24 24 24 24 24 24 24 24 24 24 24 24 23 23 23 23 23 22 22 22 22
34 34 35 36 37 37 35 34 34 34 35 36 36 35 35 34 33 33 33 34 34 32 29 28 29 29 29 29 30 30 31 31 32 32 32 32 31 31 31 32 32 32 31 31 31 30 30 29 29 29 28 28 27 27 26 26 26 25 25 24 24 24 24 24 24 24 24 24 24 24 24 24 24 24 23 23 23 23 23 23 23 23 22 22 22 22
34 33 33 34 35 35 33 32 32 33 34 34 34 34 34 33 33 32 33 33 33 32 30 30 30 30 30 30 30 30 31 31 32 32 32 32 32 31 31 32 32 31 30 30 30 29 28 28 28 27 27 26 26 25 25 25 25 24 24 24 24 24 24 24 24 24 23 23 23 23 23 23 23 23 23 23 23 23 23 23 23 23 23 22 22 22
35 33 34 35 35 34 32 31 31 31 32 32 32 32 32 32 33 33 32 32 32 31 30 30 31 32 33 33 32 31 31 31 32 32 32 33 32 31 30 31 31 31 30 29 28 28 27 27 27 26 25 25 24 24 24 24 24 23 23 23 23 23 23 23 23 23 23 23 23 23 23 23 23 23 23 23 23 23 23 23 23 23 23 22 22 22
37 36 36 36 37 36 33 32 32 32 32 32 32 32 32 32 32 32 32 32 31 31 30 30 31 31 31 32 33 32 31 31 31 31 31 32 31 30 29 29 30 30 29 29 28 27 27 26 26 26 25 25 24 24 24 24 23 23 23 23 23 23 23 23 23 23 23 23 23 23 23 23 23 23 23 23 23 23 23 22 22 22 22 22 22 22
38 38 38 38 38 38 37 36 35 35 35 34 33 33 31 32 32 32 32 32 32 31 32 32 33 33 32 30 30 31 30 30 30 30 30 31 31 30 29 29 29 29 29 28 28 27 27 26 26 26 25 25 24 24 24 23 23 23 23 23 23 23 23 23 23 23 23 23 23 23 23 23 23 23 23 22 22 22 22 22 22 22 22 22 22 22
36 36 37 38 39 39 38 38 38 37 37 35 34 32 31 31 31 31 31 32 32 32 33 33 34 35 36 32 31 31 31 31 30 30 31 32 32 31 29 29 29 30 29 29 28 27 27 27 26 26 26 25 24 24 24 23 23 23 23 23 23 23 23 23 23 23 23 23 23 22 22 22 22 22 22 22 22 22 22 22 22 22 22 22 22 22
37 37 36 37 37 38 38 39 39 39 37 36 33 32 31 31 30 30 31 31 31 32 33 34 35 37 37 37 36 35 33 32 32 32 32 32 32 31 30 30 30 30 30 29 28 27 27 27 27 26 26 25 24 24 23 23 23 23 23 23 23 23 23 23 23 23 23 22 22 22 22 22 22 22 22 22 22 22 21 21 21 21 21 21 22 22
41 40 39 38 38 38 39 40 40 39 38 36 33 32 32 31 31 31 31 31 31 32 33 35 36 37 37 36 35 35 34 33 32 32 33 33 33 32 30 30 30 31 31 30 29 27 27 27 27 26 26 25 24 24 23 23 23 23 23 23 23 23 23 22 22 22 22 22 22 22 22 22 22 22 22 22 21 21 21 21 21 21 21 21 22 22
43 43 42 41 40 40 41 41 40 39 37 36 34 33 33 33 32 33 33 32 33 34 35 36 36 36 36 36 36 35 34 34 33 33 33 33 33 32 30 30 30 31 31 30 29 28 27 27 27 26 25 25 24 23 23 23 23 23 23 23 23 23 23 23 22 22 22 22 22 22 22 22 22 22 22 21 21 21 21 21 21 21 21 22 22 22
42 42 42 41 41 42 42 41 40 38 37 37 36 36 36 35 34 35 35 35 35 36 36 36 36 35 35 35 35 35 34 34 33 32 32 33 33 32 30 30 31 32 32 31 29 28 28 28 27 26 26 25 24 24 23 23 23 23 23 23 23 23 23 23 22 22 22 22 22 22 22 22 22 22 22 21 21 21 21 21 21 22 22 21 21 21
38 39 39 39 40 40 40 40 39 38 38 38 38 38 37 36 36 36 36 36 36 37 37 37 36 36 36 35 35 35 34 33 32 31 31 32 33 32 31 31 32 33 33 31 30 29 29 28 28 27 26 26 25 24 24 24 23 23 23 22 22 22 23 22 22 22 22 22 22 22 22 22 22 22 22 21 21 21 21 22 22 22 22 21 21 21
36 36 37 37 37 38 38 37 37 37 37 38 38 38 37 37 36 37 37 37 37 37 37 38 37 37 36 35 35 35 34 32 31 30 31 32 32 33 32 32 32 33 33 31 30 29 29 29 28 27 26 26 25 24 24 24 23 23 23 22 22 22 22 22 22 22 22 22 22 22 22 22 22 22 22 22 22 22 22 22 22 22 22 21 21 21
35 35 36 36 35 35 35 35 35 36 36 37 37 37 37 36 36 36 37 37 37 37 37 37 37 37 37 36 35 35 34 32 31 30 30 31 32 33 33 32 32 33 33 31 30 29 29 29 28 27 26 25 25 24 24 24 23 23 22 22 22 22 22 22 22 22 22 22 22 22 22 22 22 22 22 22 22 22 22 22 22 22 22 22 22 22
35 34 34 34 34 34 34 34 34 35 35 36 37 37 36 35 36 36 37 37 37 37 37 38 38 37 37 37 36 35 34 32 31 31 30 31 32 34 34 33 32 32 32 31 30 29 28 28 27 26 25 25 24 24 24 24 23 22 22 22 22 22 22 22 21 21 21 21 21 21 21 22 22 22 22 22 23 23 23 23 23 23 23 23 23 22
34 33 33 33 33 33 34 34 35 35 35 36 37 37 36 35 36 37 38 37 36 36 38 38 38 38 37 37 36 35 33 32 32 31 31 31 32 34 34 32 32 31 30 30 29 29 28 27 26 25 24 24 24 24 24 23 22 22 21 21 21 21 21 20 20 20 20 20 21 21 21 22 22 22 23 23 23 23 23 23 23 23 24 24 24 23
34 34 34 34 34 34 34 35 36 36 36 36 37 37 37 37 37 38 38 36 36 37 38 39 38 38 38 37 35 34 33 33 32 32 31 31 32 34 33 32 31 30 29 29 29 28 27 26 25 24 24 23 23 23 22 22 21 20 20 19 19 19 19 19 19 19 19 20 20 21 21 22 22 23 23 24 24 24 24 24 24 24 25 25 25 24
35 35 35 35 35 35 35 36 37 37 37 37 37 38 38 38 38 38 37 36 37 38 39 39 38 37 37 35 34 33 33 33 32 31 31 31 32 32 32 30 29 29 27 26 26 27 27 26 25 24 23 22 22 21 21 20 19 19 18 18 18 18 18 18 18 19 19 20 20 21 22 22 23 23 24 24 24 24 24 25 25 25 25 26 26 26
36 36 35 35 35 35 35 36 37 37 36 36 37 38 38 38 38 38 37 37 38 39 39 39 38 37 35 34 32 32 33 33 32 31 30 30 31 30 29 28 28 27 26 24 23 22 21 22 23 23 22 20 20 20 20 19 19 18 18 17 17 17 18 18 18 19 19 20 21 21 22 22 23 23 23 24 24 24 25 25 25 26 26 26 27 27
36 36 36 35 35 35 35 35 35 35 35 35 35 36 37 37 38 38 38 38 39 39 40 39 38 37 35 34 33 33 33 32 31 30 30 29 29 29 28 27 26 26 25 24 23 20 16 17 21 23 22 21 20 20 20 20 20 19 19 18 18 18 18 18 19 19 19 20 20 21 21 21 22 22 23 23 24 24 24 25 25 26 26 27 28 28
36 36 36 36 35 35 35 35 35 34 34 34 34 34 35 36 37 37 38 38 38 39 39 39 38 36 35 34 34 34 33 32 31 31 30 29 28 27 27 26 26 25 25 25 25 24 22 22 24 25 24 23 22 22 22 22 21 20 20 20 19 19 19 18 18 18 18 19 19 19 20 20 21 21 22 22 23 23 23 24 25 25 26 27 28 28
36 36 36 36 36 36 36 35 35 35 34 33 33 33 34 34 35 36 37 37 38 38 39 38 37 36 35 34 34 34 33 32 32 31 30 29 28 27 27 26 26 25 25 24 25 25 26 26 26 26 25 25 24 23 23 22 21 20 20 20 19 19 18 18 17 17 17 17 17 18 18 19 20 20 21 21 22 22 23 23 24 24 25 26 26 27
37 37 37 37 37 37 37 36 36 35 35 35 34 34 34 34 35 35 36 37 37 37 37 37 36 35 34 34 33 33 33 32 31 31 30 29 27 27 26 26 26 25 24 24 25 25 25 26 26 25 26 26 25 24 22 21 20 19 19 19 19 18 18 17 17 17 17 17 17 17 18 18 19 19 20 20 20 21 21 22 22 22 23 23 24 24
38 38 38 38 38 38 38 38 37 37 36 36 35 34 34 34 34 35 35 36 36 36 36 35 34 33 33 32 32 32 31 30 30 30 29 28 27 26 26 26 26 25 24 24 24 24 25 25 25 25 25 26 26 24 22 20 19 18 18 19 18 18 18 18 17 17 17 17 18 18 18 18 19 19 19 19 19 19 20 20 20 20 21 21 22 22
39 39 39 40 40 40 40 40 39 38 37 37 36 35 34 34 34 34 35 35 36 35 35 34 33 32 32 31 31 30 30 29 29 29 29 28 27 26 25 25 25 25 24 24 24 24 24 25 25 25 26 26 26 25 23 21 19 19 18 18 18 18 18 18 18 18 18 18 18 18 18 18 18 19 19 18 18 18 19 19 19 19 20 20 20 21
38 39 40 41 41 41 41 41 40 39 38 37 36 35 35 34 34 34 34 35 35 34 33 32 31 31 30 30 30 29 29 28 28 28 28 27 27 26 25 25 25 25 25 24 24 24 24 24 25 26 26 26 25 25 24 22 21 20 19 18 18 18 18 18 18 18 18 18 18 18 18 18 18 18 18 18 18 18 18 18 19 19 20 20 20 21
39 40 41 42 42 42 43 43 42 40 39 37 36 35 34 34 34 34 34 34 34 33 32 31 30 29 29 28 28 28 27 26 26 26 26 26 26 25 25 25 25 24 24 24 24 24 24 24 25 26 26 26 25 24 23 22 22 21 21 20 19 18 17 17 17 17 17 17 17 17 17 17 17 17 17 18 18 18 19 19 19 19 20 20 21 21
40 42 42 43 43 43 43 43 42 41 39 37 35 34 34 33 34 34 34 33 33 32 31 30 29 28 28 27 27 26 26 25 25 25 25 25 24 24 23 23 24 24 24 24 24 24 24 24 25 25 25 25 24 24 23 22 22 22 22 21 21 20 18 17 16 16 16 16 16 16 16 16 16 17 17 17 18 18 19 19 20 20 20 20 20 21
41 42 43 43 43 43 43 43 42 40 38 37 35 34 34 34 34 34 34 33 32 31 30 29 28 28 27 27 26 26 25 25 24 24 24 23 23 23 23 23 23 23 23 24 24 24 24 24 24 24 24 24 23 23 23 23 22 22 22 22 22 21 20 18 17 15 15 15 15 15 16 16 16 17 17 18 18 19 19 20 20 20 20 20 20 20
41 42 43 43 42 42 43 42 41 40 39 37 36 35 35 34 34 34 33 33 32 31 31 30 29 28 27 27 26 26 25 25 24 24 23 22 22 22 23 23 23 23 23 23 24 24 24 23 23 23 23 22 22 22 23 23 22 22 22 22 22 22 21 18 16 15 14 14 15 15 15 16 16 17 17 18 19 19 19 19 19 19 19 19 19 19
41 42 42 42 42 41 41 41 40 40 39 38 37 36 35 35 34 34 33 32 32 31 30 30 29 28 27 27 26 26 25 25 24 23 23 22 22 22 22 22 22 22 22 22 22 23 23 22 22 22 21 21 21 21 22 23 23 23 22 22 21 21 21 19 16 15 14 14 14 14 15 16 16 17 18 19 19 19 19 19 19 18 18 19 19 19
40 41 41 41 40 40 40 40 40 40 39 39 38 37 36 35 34 33 32 32 31 30 30 29 28 27 26 26 26 25 24 24 23 23 22 22 22 22 21 21 21 22 22 21 21 21 21 21 21 20 20 20 20 21 22 23 24 23 22 21 20 20 21 19 17 15 14 14 14 14 14 15 16 18 19 19 20 20 20 19 19 18 18 18 18 19
39 40 40 39 40 40 40 40 40 40 40 39 38 37 35 34 33 32 32 31 30 29 29 28 27 26 26 26 25 24 24 23 22 22 22 21 21 20 20 20 20 20 20 20 20 20 19 19 19 19 19 19 20 21 23 24 24 23 22 20 20 19 18 17 16 15 15 14 14 14 15 16 17 18 20 20 21 20 20 20 19 19 19 18 18 18
38 39 39 39 39 40 40 41 41 40 39 39 38 37 35 34 33 32 31 30 29 28 28 27 26 26 26 25 25 24 23 22 22 21 20 19 18 18 18 18 18 18 18 18 18 18 18 18 18 18 18 20 21 22 23 23 23 23 21 19 18 18 17 16 15 14 13 14 14 15 15 16 18 19 21 22 22 22 21 20 20 20 19 19 19 19
37 38 38 38 39 39 40 40 40 39 38 38 37 35 34 33 32 31 30 29 28 27 27 26 26 25 25 24 24 23 22 21 21 20 19 17 16 15 15 15 15 16 16 16 17 17 17 17 18 18 19 21 23 24 23 22 21 20 19 17 16 15 15 14 13 12 12 13 14 15 16 17 19 20 22 23 24 24 22 21 20 20 20 20 20 19
36 37 38 38 39 39 39 39 39 38 37 36 35 34 33 32 31 30 29 28 27 26 26 26 25 25 24 24 23 22 21 20 19 19 18 16 15 14 13 13 13 14 15 16 16 17 17 18 19 19 20 21 23 23 22 20 18 16 15 14 14 14 14 13 12 12 13 14 15 16 17 18 20 22 24 25 26 25 24 22 21 20 20 20 19 19
34 36 37 38 38 38 38 38 38 37 36 35 34 33 32 32 31 30 28 27 26 26 25 25 25 24 24 23 22 21 20 19 18 18 17 15 14 13 13 13 13 14 15 16 17 17 18 19 20 20 20 20 21 21 19 17 15 13 12 12 12 13 13 13 13 13 14 14 16 17 18 20 21 23 24 26 27 26 25 23 21 20 19 19 19 19
34 35 36 37 37 38 38 38 37 36 35 34 33 32 32 31 30 29 27 26 25 25 25 25 24 23 22 21 20 19 19 18 18 17 16 14 13 13 13 14 15 15 16 17 18 19 20 21 21 20 19 17 17 16 15 14 13 12 11 11 12 12 13 14 14 15 15 16 17 19 20 21 22 23 24 26 27 26 25 23 21 20 19 19 19 19
34 34 35 36 37 37 37 37 36 35 34 33 32 32 31 30 29 28 27 26 25 24 24 23 22 21 21 20 19 19 19 19 18 17 15 14 13 14 15 17 17 18 17 18 19 20 21 22 22 20 16 13 12 12 11 12 12 12 12 12 12 13 14 15 16 16 17 18 19 20 21 23 23 24 24 25 25 26 25 23 22 20 19 19 19 20
Wind_Direction
286 285 283 280 277 276 275 274 273 272 272 272 273 273 274 274 274 274 275 276 276 277 277 278 278 279 280 280 281 281 281 282 282 283 284 284 284 283 282 280 278 276 275 274 273 273 274 275 277 278 279 280 282 283 284 285 286 286 286 286 286 285 285 285 285 284 283 282 281 280 280 280 280 281 281 280 280 279 279 279 278 277 277 276 275 275
291 290 289 287 284 281 279 278 276 274 274 273 274 274 275 276 276 277 277 277 277 277 278 278 278 278 279 279 280 280 281 281 282 283 284 284 284 283 282 280 278 277 275 274 273 273 273 274 275 277 278 280 282 283 284 285 286 287 287 287 286 286 285 285 284 284 283 282 282 281 281 280 280 280 280 280 279 279 279 278 278 277 277 276 276 275
292 292 291 291 289 286 283 281 278 276 275 274 274 275 276 276 277 278 279 279 279 279 279 279 279 279 279 279 280 280 280 281 281 282 283 284 285 284 282 280 279 277 275 274 273 273 273 274 275 276 278 279 281 282 283 285 286 287 287 287 287 286 285 284 284 283 282 282 281 281 280 280 280 280 279 279 279 278 278 277 277 276 276 275 275 275
291 291 291 291 290 287 284 281 279 277 276 276 276 277 277 277 278 279 280 280 280 281 281 281 281 281 280 280 280 280 280 280 281 281 283 284 285 284 282 281 279 277 276 274 274 273 274 274 275 277 278 279 281 282 283 284 285 286 287 287 287 286 285 284 283 282 281 280 280 279 279 279 278 278 278 277 277 277 276 276 276 275 275 274 274 274
288 288 289 290 288 286 285 282 279 278 278 278 278 278 279 279 279 279 280 280 281 281 281 282 282 281 281 281 280 280 280 280 280 281 282 284 284 284 283 281 279 277 276 275 274 274 275 276 277 278 279 280 281 282 283 284 285 285 286 286 286 285 284 283 282 281 279 278 278 277 277 277 276 276 276 275 275 275 274 274 274 274 274 273 273 273
285 286 287 287 286 284 283 282 280 279 278 279 279 280 280 280 280 280 280 280 281 281 281 281 281 281 281 281 281 281 281 281 281 281 282 283 284 283 282 281 279 277 276 276 275 276 277 278 279 279 280 281 282 283 284 284 285 285 285 285 284 284 283 282 281 279 278 277 276 275 275 274 274 274 273 273 273 273 272 272 272 272 272 272 272 272
282 283 284 284 283 282 281 280 280 279 279 279 280 281 282 282 282 282 282 282 282 282 282 282 281 281 280 280 280 281 281 281 282 282 283 283 283 283 282 280 279 277 277 277 277 278 278 279 280 281 281 282 283 283 284 285 285 285 285 284 283 282 281 280 279 278 277 276 275 274 273 273 272 272 272 271 271 271 270 270 270 270 270 270 270 271
278 279 279 278 278 279 279 279 279 280 280 281 282 283 284 285 286 286 286 286 285 285 285 284 283 282 281 281 281 281 281 282 282 282 283 283 283 282 281 280 279 278 278 278 279 279 280 281 281 282 282 283 284 284 284 285 284 284 283 283 282 281 280 279 278 277 276 275 274 273 272 272 271 271 270 270 270 269 269 269 269 269 269 269 269 269
273 274 273 273 273 275 277 279 281 282 283 283 284 285 287 289 290 290 290 290 290 290 290 290 288 286 285 283 283 282 282 282 282 282 282 282 282 282 281 280 280 280 280 280 280 281 281 281 282 283 283 284 284 284 284 284 283 283 282 281 281 280 279 278 277 276 275 274 274 273 272 271 271 270 270 270 269 269 268 268 268 268 268 268 269 269
270 270 271 272 273 274 276 278 281 283 283 284 285 286 288 289 291 292 292 292 293 294 294 294 293 291 289 287 286 285 284 282 282 281 282 282 281 281 280 280 280 281 281 281 281 281 281 282 282 283 284 284 284 284 283 282 282 281 280 280 279 278 278 277 276 275 275 274 273 273 272 272 271 271 270 270 270 269 269 269 269 269 269 269 269 269
269 269 270 271 273 275 276 277 279 281 281 282 283 285 287 288 289 290 292 294 295 296 296 295 295 294 293 291 289 287 285 284 283 283 282 282 282 281 281 281 281 282 282 282 282 282 282 282 283 283 283 283 283 282 281 281 280 279 278 278 277 277 276 276 275 274 274 273 273 273 272 272 272 271 271 271 270 270 270 270 270 270 270 270 270 270
269 270 271 273 274 275 277 278 280 280 279 279 280 282 284 287 289 291 292 294 296 297 297 297 297 296 294 294 292 289 287 285 284 284 284 283 282 282 283 283 284 284 284 283 283 283 283 283 283 283 283 282 281 280 279 279 278 277 277 276 276 276 275 275 274 274 273 273 273 272 272 272 272 272 272 272 272 272 272 272 271 271 271 271 270 270
270 271 272 274 275 276 277 278 279 280 279 279 280 281 284 289 292 294 294 295 296 297 299 300 298 297 295 293 291 289 287 285 284 284 283 282 282 283 284 285 286 286 286 285 284 284 284 284 284 283 281 280 279 278 277 276 276 276 275 275 275 274 274 274 273 273 273 273 273 272 272 272 272 272 272 272 273 273 273 273 272 272 272 272 271 271
270 271 272 272 274 275 276 277 278 278 280 282 285 288 291 294 295 296 296 296 297 299 301 301 299 297 295 292 289 287 285 284 283 283 282 282 283 285 286 287 287 286 286 285 284 284 284 284 282 281 280 278 277 276 275 274 274 274 274 274 273 273 273 273 273 273 273 273 273 273 273 273 273 273 273 273 273 273 273 273 273 273 273 273 272 272
269 269 270 270 271 273 274 276 277 279 282 285 288 291 293 293 293 293 294 294 296 299 300 299 298 296 292 290 287 285 284 283 282 282 282 283 284 286 287 287 287 286 285 285 284 284 284 283 281 279 277 275 274 273 272 272 271 271 271 271 271 271 272 272 272 273 273 273 273 273 273 273 273 274 274 274 274 274 274 274 274 274 273 273 273 273
268 267 267 268 269 270 272 273 275 277 280 283 285 287 287 288 289 289 290 292 294 295 295 294 293 292 290 289 287 285 283 282 281 282 283 284 285 286 287 286 286 285 284 284 284 284 284 283 281 279 277 275 273 271 270 270 269 269 269 269 269 270 270 271 271 272 272 273 273 273 274 274 274 274 274 274 274 274 274 274 274 274 274 274 274 274
269 268 267 267 268 270 272 272 272 274 276 277 278 279 280 282 284 286 287 288 289 289 288 287 286 285 286 288 288 286 284 283 282 282 283 284 284 285 285 284 283 283 284 284 284 285 285 284 282 281 279 276 274 273 271 270 269 269 268 268 269 269 270 270 271 272 272 273 273 274 274 274 275 274 274 274 274 274 274 274 274 274 274 274 274 274
267 268 268 268 269 271 273 273 273 274 275 275 276 277 278 280 281 282 283 283 283 283 283 284 283 281 281 282 283 285 286 285 283 282 282 282 283 284 284 282 282 282 283 284 285 285 285 285 284 282 281 279 277 275 274 273 272 270 270 269 269 270 271 271 272 272 273 274 274 275 275 275 275 274 274 274 274 274 274 274 274 274 274 274 274 274
264 265 266 267 269 272 274 274 276 277 277 277 278 279 280 281 281 281 280 280 280 281 281 281 281 281 281 279 280 282 284 283 281 279 278 280 281 282 281 280 280 281 282 283 284 285 285 284 284 282 281 280 279 278 276 275 274 273 272 271 271 271 272 272 273 273 274 274 275 275 275 275 275 274 274 274 274 274 273 273 273 274 274 274 274 274
262 262 262 264 267 270 272 274 276 278 279 280 281 282 282 282 282 280 278 278 280 281 282 281 280 280 281 282 282 282 281 279 277 275 275 277 278 279 279 279 279 280 281 283 284 284 284 283 282 282 281 280 279 278 277 276 275 274 274 273 273 273 273 273 273 274 274 274 275 275 275 274 274 274 273 273 273 273 273 273 273 274 274 274 274 274
261 261 261 262 264 265 268 272 276 279 280 280 281 281 281 282 281 279 278 279 281 282 282 281 280 281 282 281 279 278 278 277 275 273 274 275 276 277 278 278 279 279 280 282 283 284 283 282 281 280 280 279 279 278 277 276 275 275 274 274 273 273 273 273 273 273 273 274 274 274 273 273 273 272 272 272 272 272 272 273 273 274 274 274 274 274
261 262 265 265 264 264 267 271 274 276 277 277 276 276 277 279 279 279 280 281 282 282 282 281 281 282 282 280 278 277 277 276 274 273 273 274 275 276 278 278 279 279 280 281 282 282 281 280 280 279 279 279 278 277 276 275 274 273 273 273 273 273 273 273 273 273 273 273 272 272 272 272 272 271 271 271 271 272 272 273 273 274 274 274 274 273
262 264 266 266 265 266 268 271 272 272 272 272 273 274 276 277 278 279 280 281 282 283 283 283 283 282 280 278 277 276 275 274 273 272 271 271 273 276 278 279 279 279 280 281 282 281 280 279 279 279 279 278 277 276 275 274 273 272 272 272 272 272 272 272 272 271 271 271 271 271 271 271 270 270 270 270 271 271 272 273 274 274 274 274 273 273
265 266 267 267 267 268 269 269 269 269 269 270 271 273 276 277 277 278 279 280 282 282 282 282 280 278 276 276 275 274 273 272 272 271 270 271 274 277 279 279 279 279 280 281 281 281 280 279 279 279 279 278 277 276 275 274 273 272 272 271 271 271 270 270 270 270 270 270 270 269 269 269 269 269 269 270 271 272 273 274 274 274 274 273 272 272
268 269 269 268 268 268 268 268 268 267 267 268 270 272 273 274 275 276 277 278 279 279 279 277 274 273 273 274 273 272 271 271 270 270 270 272 275 277 278 279 279 279 280 281 281 280 280 279 279 279 278 278 277 276 275 274 273 273 272 272 271 270 270 269 269 269 269 268 268 268 267 267 267 267 268 270 271 272 273 274 274 274 273 272 272 271
270 270 270 270 269 269 268 268 267 266 266 267 268 269 270 271 272 274 274 275 276 276 275 272 270 271 273 273 273 272 271 270 270 270 270 272 275 277 278 279 279 279 279 280 279 279 279 278 278 278 277 276 276 275 274 273 273 273 273 271 270 269 269 268 268 268 267 266 266 265 265 265 266 267 268 270 272 273 274 274 274 273 273 272 271 270
270 270 270 270 270 269 268 267 266 265 265 265 266 268 268 269 270 271 271 272 273 274 272 269 267 269 271 271 271 270 270 270 270 271 272 273 273 274 276 278 278 278 278 279 279 278 278 278 277 277 275 275 274 273 272 272 272 272 272 271 270 269 268 267 266 265 264 263 263 262 263 264 265 267 269 271 273 273 273 273 273 273 272 271 270 270
267 266 266 266 266 266 265 265 265 265 264 265 266 267 267 268 267 268 268 270 272 272 271 267 266 267 268 268 269 270 270 269 270 271 272 272 271 272 275 277 277 277 277 278 279 278 278 277 277 276 274 273 272 271 271 271 271 271 270 270 269 268 267 266 264 263 261 260 260 261 262 264 266 268 271 272 273 274 273 273 273 272 272 271 271 270
264 262 262 262 262 261 262 262 263 263 263 263 264 266 267 267 266 267 268 270 271 270 269 268 267 266 266 267 268 268 268 268 269 270 271 270 270 272 275 277 276 276 277 279 280 279 278 277 276 275 273 272 270 270 270 270 270 269 268 268 268 267 266 264 263 261 259 259 259 261 263 266 268 271 272 274 274 274 274 274 274 273 273 272 272 272
267 264 262 261 261 260 260 260 261 261 262 262 263 264 266 267 267 268 269 269 269 268 268 268 267 266 265 265 264 264 264 265 267 269 270 269 270 272 276 276 275 275 276 278 280 281 281 279 277 275 273 271 270 270 270 269 269 268 267 267 267 267 266 265 263 261 260 260 261 263 266 268 270 272 274 274 275 275 275 275 275 275 274 274 274 274
271 268 266 265 264 264 263 263 262 262 262 262 262 263 264 266 267 268 269 268 268 267 267 267 266 265 262 260 258 258 261 265 267 269 270 269 270 273 275 274 273 273 274 275 276 278 282 282 279 276 274 272 271 271 270 270 270 269 268 268 268 267 266 265 264 263 263 263 264 266 267 269 271 272 273 274 274 275 276 276 276 276 276 276 276 276
272 271 269 269 268 268 268 267 266 265 264 263 262 262 263 265 266 267 267 268 267 267 267 266 264 262 260 257 255 256 261 265 268 270 271 270 271 272 272 270 270 270 272 272 271 270 271 275 277 277 277 275 274 274 273 272 272 272 272 271 270 268 267 265 264 264 263 263 264 265 266 268 269 270 272 273 274 274 275 276 276 276 276 276 276 276
272 271 270 270 270 270 269 269 269 268 266 265 264 263 264 264 265 266 266 267 268 267 266 265 262 260 257 257 257 259 262 264 267 269 270 269 268 269 269 268 267 268 269 270 271 270 268 269 272 275 275 275 275 275 274 275 276 277 277 276 274 272 270 268 266 264 263 263 263 264 265 266 268 269 270 271 272 272 273 274 274 275 275 275 275 274
270 269 269 270 270 270 269 269 269 269 268 267 266 265 265 265 265 265 266 267 268 267 266 264 261 258 256 256 258 260 262 263 265 267 268 267 266 266 267 266 266 266 267 268 269 270 270 271 272 274 274 274 273 273 274 275 277 278 278 278 277 275 274 272 270 267 266 265 264 265 265 266 267 267 268 269 269 270 270 270 271 272 273 273 274 275
268 268 269 269 269 269 269 268 268 268 267 267 266 266 266 266 266 266 267 267 268 267 266 265 262 259 256 256 258 260 262 263 264 266 266 265 264 264 265 264 264 265 266 266 268 270 271 272 274 275 276 275 274 273 273 275 276 276 277 277 276 276 276 275 274 273 272 271 270 269 268 268 268 268 268 269 268 268 268 268 269 269 271 273 275 278
265 266 266 267 267 268 268 267 266 266 266 266 266 266 266 266 267 267 267 268 268 267 266 264 262 259 257 256 257 260 261 263 263 263 264 263 263 262 262 263 264 264 265 266 268 269 271 273 275 276 276 277 277 276 275 275 275 275 276 277 277 277 278 279 280 280 280 279 277 276 275 274 273 273 272 271 271 270 269 269 270 271 273 275 278 280
262 262 263 264 264 265 265 265 265 264 264 265 266 267 267 268 268 268 268 268 267 267 265 263 261 258 257 257 258 259 260 261 261 261 261 262 261 261 261 262 264 265 265 266 268 270 271 273 274 275 275 276 277 279 279 278 277 276 276 277 278 280 281 283 284 285 284 283 282 281 280 279 278 278 276 276 275 274 274 274 275 277 278 280 282 284
258 259 260 260 261 262 263 263 263 263 264 265 266 267 268 269 270 270 269 268 267 266 264 263 260 259 258 258 259 259 259 259 259 260 260 261 262 262 262 263 265 266 267 267 268 269 271 272 273 274 275 276 277 279 281 282 281 279 278 277 277 279 280 282 283 283 283 283 282 282 281 281 280 280 280 279 279 279 280 280 281 282 283 284 285 287
256 256 257 257 258 259 260 261 262 263 265 266 267 268 268 269 269 269 268 267 266 265 264 262 261 260 259 259 260 260 259 258 258 259 260 262 263 264 264 265 266 267 268 269 269 270 270 271 272 273 275 277 278 279 280 281 282 283 283 281 279 278 279 280 280 280 280 281 281 281 281 281 281 281 281 282 282 283 283 283 284 286 288 289 289 289
255 255 255 256 257 258 259 260 262 264 265 266 267 266 266 265 265 265 264 264 263 263 262 262 262 261 261 260 260 259 258 257 257 258 260 262 264 265 265 266 267 268 269 270 270 270 271 271 272 274 275 277 279 280 281 282 284 285 287 288 288 287 285 284 283 283 283 282 282 282 282 282 281 281 282 282 283 284 285 286 288 290 292 294 295 294
255 255 255 255 256 257 259 260 262 263 264 264 264 264 262 261 259 258 258 258 259 259 260 260 261 261 261 261 260 259 257 256 256 257 259 261 263 265 265 266 266 267 268 269 270 270 271 271 272 274 275 277 279 280 282 283 286 288 290 291 292 292 291 290 290 289 288 287 286 285 284 284 283 283 283 283 284 285 286 288 291 293 294 295 295 295
255 255 255 255 256 257 258 259 260 261 261 262 261 260 259 257 255 253 253 253 255 257 258 259 259 259 259 260 260 259 258 258 258 259 260 261 262 263 264 265 265 265 265 266 267 268 269 270 271 272 274 277 280 282 284 285 287 289 290 291 292 292 292 291 292 293 293 291 289 288 287 286 286 285 285 285 285 286 287 290 292 294 295 295 295 294
256 256 256 256 256 257 258 258 258 258 258 258 258 258 258 257 255 253 252 252 253 255 257 258 259 258 258 258 259 259 259 260 261 262 262 263 263 263 263 263 262 262 261 262 263 265 267 268 269 271 273 277 281 284 287 288 288 289 290 292 294 295 295 294 294 294 292 291 289 289 288 287 286 285 285 286 286 288 290 292 294 295 296 296 296 295
257 257 257 257 257 257 257 256 255 256 256 256 256 256 256 256 255 253 251 251 253 254 255 257 257 257 256 257 258 259 259 260 261 262 263 264 264 263 262 260 259 258 258 258 259 261 265 267 269 272 276 280 283 284 285 286 288 289 291 293 294 294 293 295 296 296 295 292 290 289 288 288 287 288 288 289 291 293 295 297 298 298 298 297 296 295
258 257 257 256 255 254 253 253 254 254 255 255 255 255 255 255 254 252 250 250 251 252 252 253 253 252 252 254 256 257 259 260 261 262 263 263 263 261 259 257 256 255 256 256 258 260 264 267 271 275 278 281 283 282 282 285 288 291 293 294 294 293 293 294 296 298 299 296 294 293 293 293 294 294 294 294 296 298 299 300 300 300 300 299 298 297
257 256 255 254 253 252 252 252 253 253 253 253 253 253 253 253 252 251 250 250 249 249 250 251 250 249 249 252 255 257 258 260 261 262 263 263 261 259 257 255 254 254 255 258 261 263 266 270 273 277 281 281 281 282 283 286 289 291 293 294 294 293 293 294 297 299 299 298 298 298 299 299 299 298 297 298 299 300 301 302 302 303 303 302 301 300
256 255 254 253 252 251 251 251 250 249 249 249 249 250 251 251 250 249 248 248 248 248 248 249 249 249 250 252 255 257 259 261 262 263 264 264 263 261 258 257 256 256 258 261 265 270 272 274 276 278 279 280 281 283 286 289 291 292 293 294 294 293 293 295 298 299 299 299 300 302 303 302 301 300 300 301 301 301 302 303 304 304 304 304 303 303
256 255 254 253 251 250 248 247 247 245 245 245 246 247 248 249 248 247 245 246 246 245 245 245 245 247 249 252 254 257 259 261 263 265 267 267 266 264 263 263 262 263 264 265 268 270 273 276 278 280 281 281 283 286 289 290 291 292 292 293 293 293 294 297 299 299 300 301 303 305 305 303 301 301 301 301 301 302 303 304 304 305 305 305 304 304
256 255 253 252 249 247 244 243 243 242 241 242 242 243 245 247 247 245 244 244 243 243 242 242 243 245 247 250 254 257 259 260 262 265 267 266 264 262 262 261 261 262 263 265 267 270 273 276 278 281 283 284 285 286 289 290 290 290 290 291 293 295 297 299 300 302 303 305 306 306 305 303 301 300 300 299 300 301 303 304 305 306 306 306 305 305
256 254 252 250 247 244 242 241 240 239 239 240 240 241 242 244 244 244 243 242 242 241 240 241 242 244 247 251 254 255 257 258 261 264 264 261 257 254 252 252 252 253 255 260 264 269 273 276 279 282 285 286 284 284 285 287 288 289 289 292 296 299 300 302 304 305 307 307 307 305 303 301 300 299 298 298 299 300 302 304 305 307 308 307 307 306
256 253 251 248 245 243 241 240 239 238 238 239 239 239 239 239 240 240 240 239 239 239 239 241 242 244 247 251 253 254 256 257 260 260 259 254 249 246 245 245 246 249 253 258 264 270 275 280 283 285 285 284 282 281 282 286 290 293 295 298 301 303 303 305 306 307 307 307 305 303 301 299 298 298 298 299 300 301 302 304 306 308 309 309 309 309